User: anonymous   Login
Location: Winnipauk Village
(41.1295°N, 73.4171°W)
Time: 13:47:53
(UTC+00:00)
Language:

ISS - Orbit

View from above orbital plane
View from above orbital plane
View from above satellite
View from above satellite

Ground track
Ground track

The orbit data is extracted from the following two-line orbital elements,

1 25544U 98067A   21262.19686343  .00001502  00000-0  36112-4 0  9998
2 25544  51.6434 237.8880 0003289  31.7976 151.4196 15.48407779303168
Epoch (UTC): 19 September 2021 04:43:29
Eccentricity: 0.0003289
inclination: 51.6434°
perigee height: 419 km
apogee height: 423 km
right ascension of ascending node: 237.8880°
argument of perigee: 31.7976°
revolutions per day: 15.48407779
mean anomaly at epoch: 151.4196°
orbit number at epoch: 30316

The dashed part of the orbit path shows where the satellite is in the earth's shadow,  

DLR